sat.trackr.live / text

‹ back to catalog

STARLINK-6345

NORAD 56790 · 2023-078Z

PAYLOAD ACTIVE UNKNOWN

§ Identity

Operator
Country
US
Launch date
2023-05-31
Launch site
AFWTR
Launch vehicle
Mass (kg)
RCS (m²)

Purposes: comms

External: N2YO · Heavens-Above · Gunter

§ Orbital elements

Epoch: 2026-09-20T11:37:15.335328Z

Period
96.11 min
Inclination
70.0000°
Eccentricity
0.0003004
Mean motion
14.98330199 rev/d
Perigee alt
570.0 km
Apogee alt
574.1 km
Semi-major
6,950.2 km
B*
2.4080e-5
RAAN
173.3551°
Arg perigee
269.7154°
Mean anomaly
90.3661°
Rev number
18,284

§ Raw data

STARLINK-63451 56790U 23078Z   26263.48420527  .00000194  00000+0  24080-4 0  99992 56790  70.0000 173.3551 0003004 269.7154  90.3661 14.98330199182847

JSON: /api/v1/satellites/56790 · /tle

For live sub-satellite position, see the globe view (requires WebGL).

§ Visibility from observer

Set your observer location to see the next 7 days of passes ≥ 10°. The values pass through the URL so the page stays shareable.

No JS? Fill the form by hand. The geolocation button needs JavaScript.